When you browse on this site, cookies collect data to enhance your experience and personalize the content and advertising you see.
Visit our Privacy Policy to learn more. By continuing to use the site, you agree to this use of cookies and data.
  • Em Portugal
  • Lista de países
  • Para 7 dias
  • Temperatura da água
  • Mapas de satélite
  • Mapa do tempo
  • Widgets de tempo
  • user-avatar
    Iniciar Sessão

    Previsão horária em Postawele

    Hoje, 25 Maio, Sábado

    Tempo Temperatura Precipitação Vento Pressão Humidade
    00:00 +10°C° 0 mm 2 m/s 742 mmHg 80%
    01:00 +9°C° 0 mm 2 m/s 742 mmHg 79%
    02:00 +10°C° 0 mm 1 m/s 742 mmHg 80%
    03:00 +10°C° 0 mm 1 m/s 742 mmHg 80%
    04:00 +10°C° 0 mm 1 m/s 742 mmHg 79%
    05:00 +9°C° 0 mm 2 m/s 742 mmHg 79%
    06:00 +12°C° 0 mm 2 m/s 742 mmHg 77%
    07:00 +13°C° 0 mm 3 m/s 742 mmHg 75%
    08:00 +15°C° 0 mm 4 m/s 742 mmHg 72%
    09:00 +16°C° 0.1 mm 5 m/s 742 mmHg 69%
    10:00 +17°C° 0.1 mm 5 m/s 742 mmHg 67%
    11:00 +19°C° 0.1 mm 5 m/s 742 mmHg 64%
    12:00 +19°C° 0.4 mm 5 m/s 742 mmHg 68%
    13:00 +17°C° 0.4 mm 5 m/s 742 mmHg 72%
    14:00 +17°C° 0.4 mm 5 m/s 741 mmHg 77%
    15:00 +16°C° 0 mm 5 m/s 741 mmHg 75%
    16:00 +16°C° 0 mm 5 m/s 741 mmHg 74%
    17:00 +15°C° 0 mm 5 m/s 741 mmHg 72%
    18:00 +14°C° 0 mm 5 m/s 742 mmHg 76%
    19:00 +12°C° 0 mm 4 m/s 742 mmHg 80%
    20:00 +11°C° 0 mm 3 m/s 742 mmHg 84%
    21:00 +10°C° 0 mm 3 m/s 742 mmHg 88%
    22:00 +9°C° 0 mm 3 m/s 742 mmHg 92%
    23:00 +7°C° 0 mm 3 m/s 743 mmHg 96%

    Amanhã, 26 Maio, Domingo

    Tempo Temperatura Precipitação Vento Pressão Humidade
    00:00 +7°C° 0 mm 2 m/s 743 mmHg 96%
    01:00 +7°C° 0 mm 2 m/s 743 mmHg 96%
    02:00 +6°C° 0 mm 2 m/s 743 mmHg 97%
    03:00 +6°C° 0 mm 2 m/s 743 mmHg 97%
    04:00 +5°C° 0 mm 3 m/s 742 mmHg 97%
    05:00 +5°C° 0 mm 3 m/s 742 mmHg 97%
    06:00 +8°C° 0 mm 3 m/s 742 mmHg 91%
    07:00 +10°C° 0 mm 4 m/s 742 mmHg 85%
    08:00 +10°C° 0 mm 5 m/s 742 mmHg 79%
    09:00 +12°C° 0 mm 5 m/s 742 mmHg 79%
    10:00 +12°C° 0 mm 5 m/s 742 mmHg 80%
    11:00 +12°C° 0 mm 5 m/s 742 mmHg 80%
    12:00 +12°C° 0.1 mm 5 m/s 742 mmHg 79%
    13:00 +13°C° 0.1 mm 5 m/s 742 mmHg 78%
    14:00 +13°C° 0.1 mm 5 m/s 742 mmHg 77%
    15:00 +13°C° 0.1 mm 5 m/s 741 mmHg 76%
    16:00 +13°C° 0.1 mm 5 m/s 741 mmHg 75%
    17:00 +14°C° 0.1 mm 5 m/s 741 mmHg 75%
    18:00 +13°C° 0 mm 5 m/s 741 mmHg 78%
    19:00 +13°C° 0 mm 4 m/s 741 mmHg 80%
    20:00 +12°C° 0 mm 3 m/s 741 mmHg 83%
    21:00 +11°C° 0 mm 3 m/s 740 mmHg 86%
    22:00 +11°C° 0 mm 3 m/s 740 mmHg 88%
    23:00 +10°C° 0 mm 4 m/s 740 mmHg 91%

    Depois de amanhã, 27 Maio, Segunda-feira

    Tempo Temperatura Precipitação Vento Pressão Humidade
    00:00 +11°C° 0 mm 4 m/s 740 mmHg 88%
    01:00 +11°C° 0 mm 4 m/s 740 mmHg 86%
    02:00 +12°C° 0 mm 4 m/s 740 mmHg 83%
    03:00 +12°C° 0 mm 4 m/s 740 mmHg 85%
    04:00 +12°C° 0 mm 4 m/s 740 mmHg 88%
    05:00 +12°C° 0 mm 4 m/s 740 mmHg 90%
    06:00 +13°C° 0 mm 4 m/s 740 mmHg 87%
    07:00 +14°C° 0 mm 4 m/s 740 mmHg 84%
    08:00 +15°C° 0 mm 5 m/s 740 mmHg 81%
    09:00 +16°C° 0.1 mm 6 m/s 740 mmHg 79%
    10:00 +17°C° 0.1 mm 6 m/s 740 mmHg 78%
    11:00 +18°C° 0.1 mm 7 m/s 740 mmHg 76%
    12:00 +18°C° 0.5 mm 7 m/s 740 mmHg 78%
    13:00 +19°C° 0.5 mm 6 m/s 740 mmHg 80%
    14:00 +19°C° 0.5 mm 6 m/s 740 mmHg 82%
    15:00 +19°C° 1.2 mm 6 m/s 740 mmHg 84%
    16:00 +19°C° 1.2 mm 5 m/s 740 mmHg 86%
    17:00 +17°C° 1.2 mm 5 m/s 740 mmHg 88%
    18:00 +18°C° 0.6 mm 4 m/s 740 mmHg 91%
    19:00 +17°C° 0.6 mm 3 m/s 740 mmHg 93%
    20:00 +16°C° 0.6 mm 2 m/s 740 mmHg 95%
    21:00 +15°C° 0 mm 2 m/s 741 mmHg 96%
    22:00 +15°C° 0 mm 2 m/s 741 mmHg 96%
    23:00 +14°C° 0 mm 2 m/s 741 mmHg 97%

    28 Maio, Terça-feira

    Tempo Temperatura Precipitação Vento Pressão Humidade
    00:00 +13°C° 0 mm 2 m/s 741 mmHg 96%
    01:00 +13°C° 0 mm 1 m/s 742 mmHg 95%
    02:00 +12°C° 0 mm 1 m/s 742 mmHg 94%
    03:00 +12°C° 0 mm 1 m/s 742 mmHg 93%
    04:00 +12°C° 0 mm 1 m/s 742 mmHg 92%
    05:00 +12°C° 0 mm 1 m/s 742 mmHg 91%
    06:00 +13°C° 0 mm 1 m/s 742 mmHg 90%
    07:00 +13°C° 0 mm 2 m/s 742 mmHg 89%
    08:00 +14°C° 0 mm 2 m/s 742 mmHg 88%
    09:00 +13°C° 1.3 mm 3 m/s 741 mmHg 90%
    10:00 +13°C° 1.3 mm 3 m/s 741 mmHg 92%
    11:00 +14°C° 1.3 mm 3 m/s 741 mmHg 95%
    12:00 +14°C° 1.7 mm 3 m/s 740 mmHg 95%
    13:00 +14°C° 1.7 mm 3 m/s 740 mmHg 96%
    14:00 +14°C° 1.7 mm 3 m/s 739 mmHg 97%
    15:00 +16°C° 0.1 mm 3 m/s 739 mmHg 96%
    16:00 +16°C° 0.1 mm 3 m/s 739 mmHg 95%
    17:00 +17°C° 0.1 mm 3 m/s 739 mmHg 94%
    18:00 +16°C° 0 mm 3 m/s 738 mmHg 95%
    19:00 +16°C° 0 mm 3 m/s 738 mmHg 96%
    20:00 +14°C° 0 mm 3 m/s 738 mmHg 97%
    21:00 +14°C° 0.1 mm 3 m/s 738 mmHg 98%
    22:00 +14°C° 0.1 mm 3 m/s 738 mmHg 98%
    23:00 +13°C° 0.1 mm 3 m/s 738 mmHg 98%

    29 Maio, Quarta-feira

    Tempo Temperatura Precipitação Vento Pressão Humidade
    00:00 +14°C° 0.3 mm 2 m/s 738 mmHg 98%
    01:00 +14°C° 0.3 mm 2 m/s 738 mmHg 98%
    02:00 +14°C° 0.3 mm 2 m/s 738 mmHg 99%
    03:00 +14°C° 0.2 mm 2 m/s 738 mmHg 98%
    04:00 +15°C° 0.2 mm 2 m/s 738 mmHg 98%
    05:00 +15°C° 0.2 mm 2 m/s 737 mmHg 98%
    06:00 +15°C° 0 mm 2 m/s 738 mmHg 98%
    07:00 +14°C° 0 mm 3 m/s 738 mmHg 97%
    08:00 +14°C° 0 mm 3 m/s 738 mmHg 97%
    09:00 +14°C° 0.5 mm 3 m/s 738 mmHg 96%
    10:00 +14°C° 0.5 mm 4 m/s 739 mmHg 95%
    11:00 +14°C° 0.5 mm 4 m/s 739 mmHg 94%
    12:00 +14°C° 0.7 mm 5 m/s 739 mmHg 94%
    13:00 +14°C° 0.7 mm 5 m/s 740 mmHg 94%
    14:00 +13°C° 0.7 mm 6 m/s 740 mmHg 94%
    15:00 +11°C° 0.8 mm 6 m/s 740 mmHg 95%
    16:00 +11°C° 0.8 mm 6 m/s 741 mmHg 95%
    17:00 +10°C° 0.8 mm 7 m/s 741 mmHg 95%
    18:00 +9°C° 0.9 mm 7 m/s 742 mmHg 95%
    19:00 +9°C° 0.9 mm 7 m/s 743 mmHg 95%
    20:00 +8°C° 0.9 mm 7 m/s 743 mmHg 95%
    21:00 +8°C° 0.2 mm 6 m/s 744 mmHg 94%
    22:00 +7°C° 0.2 mm 6 m/s 744 mmHg 93%
    23:00 +7°C° 0.2 mm 5 m/s 745 mmHg 92%

    30 Maio, Quinta-feira

    Tempo Temperatura Precipitação Vento Pressão Humidade
    00:00 +6°C° 0 mm 5 m/s 746 mmHg 91%
    01:00 +6°C° 0 mm 4 m/s 746 mmHg 90%
    02:00 +5°C° 0 mm 4 m/s 746 mmHg 89%
    03:00 +5°C° 0 mm 3 m/s 747 mmHg 89%
    04:00 +4°C° 0 mm 3 m/s 747 mmHg 90%
    05:00 +3°C° 0 mm 3 m/s 748 mmHg 90%
    06:00 +5°C° 0 mm 3 m/s 748 mmHg 84%
    07:00 +8°C° 0 mm 3 m/s 749 mmHg 79%
    08:00 +10°C° 0 mm 3 m/s 749 mmHg 73%
    09:00 +12°C° 0 mm 3 m/s 749 mmHg 66%
    10:00 +13°C° 0 mm 3 m/s 750 mmHg 60%
    11:00 +16°C° 0 mm 3 m/s 750 mmHg 53%
    12:00 +16°C° 0 mm 3 m/s 750 mmHg 53%
    13:00 +16°C° 0 mm 2 m/s 750 mmHg 52%
    14:00 +17°C° 0 mm 2 m/s 750 mmHg 52%
    15:00 +17°C° 0 mm 2 m/s 750 mmHg 52%
    16:00 +17°C° 0 mm 2 m/s 750 mmHg 53%
    17:00 +17°C° 0 mm 2 m/s 750 mmHg 53%
    18:00 +16°C° 0 mm 1 m/s 750 mmHg 60%
    19:00 +14°C° 0 mm 1 m/s 750 mmHg 66%
    20:00 +13°C° 0 mm 1 m/s 750 mmHg 73%
    21:00 +12°C° 0 mm 1 m/s 750 mmHg 74%
    22:00 +11°C° 0 mm 1 m/s 750 mmHg 76%
    23:00 +10°C° 0 mm 1 m/s 750 mmHg 77%
    Mostrar mais